Regional Weather Roundup
Issued by NWS

Home | Current Version | Previous Version | Text Only | Print | Product List | Glossary Off
Versions: 1 2 3 4 5 6 7 8 9 10 11 12 13 14 15 16 17 18 19 20 21 22 23 24 25 26 27 28 29 30 31 32 33 34 35 36 37 38 39 40 41 42 43 44 45 46 47 48 49 50

000
ASUS43 KDTX 271201
RWRMI
MICHIGAN HOURLY REGIONAL WEATHER ROUNDUP
NATIONAL WEATHER SERVICE DETROIT/PONTIAC MI
700 AM EST THU NOV 27 2014

NOTE: "FAIR" INDICATES FEW OR NO CLOUDS BELOW 12,000 FEET WITH NO
SIGNIFICANT WEATHER AND/OR OBSTRUCTION TO VISIBILITY.

MIZ047>049-052>055-059>063-066>070-074>076-081>083-271300-
SOUTHEAST LOWER MICHIGAN

CITY           SKY/WX    TMP DP  RH WIND       PRES   REMARKS
ADRIAN         CLOUDY    27  20  75 NW7       30.15R WCI  19
6HR MIN TEMP:  27; 6HR MAX TEMP:  30;

ANN ARBOR      MOCLDY    28  17  63 NW5       30.12R WCI  23
DETROIT CITY   MOCLDY    30  21  69 NW6       30.12R WCI  24
6HR MIN TEMP:  30; 6HR MAX TEMP:  33;

DETROIT        MOCLDY    27  20  75 CALM      30.13R
6HR MIN TEMP:  26; 6HR MAX TEMP:  31; 6HR PCP: TRACE;

FLINT          CLOUDY    29  23  78 NW8       30.13R WCI  21
6HR MIN TEMP:  25; 6HR MAX TEMP:  30;


CITY           SKY/WX    TMP DP  RH WIND       PRES   REMARKS
JACKSON        CLOUDY    27  21  78 NW7       30.13R WCI  19
6HR MIN TEMP:  26; 6HR MAX TEMP:  28; 6HR PCP: TRACE;

LANSING        CLOUDY    28  21  75 NW8       30.15R WCI  20
6HR MIN TEMP:  27; 6HR MAX TEMP:  28;

LAPEER         NOT AVBL
MT. CLEMENS    CLOUDY    28  24  88 W7        30.09R WCI  20
6HR MIN TEMP:  28; 6HR MAX TEMP:  30;

PONTIAC        CLOUDY    26  20  77 W7        30.10R WCI  18
6HR MIN TEMP:  23; 6HR MAX TEMP:  28;

PORT HOPE        N/A     31  24  75 W8        30.05S WCI  23
6HR MIN TEMP:  31; 6HR MAX TEMP:  32;

TRI CITIES     CLOUDY    30  23  75 W10       30.13R WCI  21
6HR MIN TEMP:  28; 6HR MAX TEMP:  30;

$$
MIZ043>046-050>051-056>058-064>065-071>073-077>080-271300-
SOUTHWEST LOWER MICHIGAN

CITY           SKY/WX    TMP DP  RH WIND       PRES   REMARKS
BATTLE CREEK   MOCLDY    28  20  71 W6        30.15S WCI  22
6HR MIN TEMP:  28; 6HR MAX TEMP:  30;

BENTON HARBOR  LGT SNOW  27  26  96 E5        30.19R VSB 1   WCI  22
6HR MIN TEMP:  27; 6HR MAX TEMP:  27; 6HR PCP:  0.04;

HOLLAND        LGT SNOW  30  26  85 CALM      30.18R FOG
6HR MIN TEMP:  30; 6HR MAX TEMP:  31; 6HR PCP:  0.02;

GRAND RAPIDS   MOCLDY    27  22  81 NW6       30.16R WCI  20
6HR MIN TEMP:  27; 6HR MAX TEMP:  29; 6HR PCP: TRACE;

KALAMAZOO      CLOUDY    28  21  75 W3        30.17R
6HR MIN TEMP:  28; 6HR MAX TEMP:  29;

MUSKEGON       LGT SNOW  28  25  86 N3        30.18R VSB 1
6HR MIN TEMP:  29; 6HR MAX TEMP:  30; 6HR PCP:  0.02;

$$
MIZ016>042-271300-
NORTHERN LOWER MICHIGAN

CITY           SKY/WX    TMP DP  RH WIND       PRES   REMARKS
ALPENA         LGT SNOW  26  24  92 W5        30.10S FOG     WCI  20
6HR MIN TEMP:  24; 6HR MAX TEMP:  26; 6HR PCP:  0.01;

GAYLORD        LGT SNOW  24  20  84 N7        30.09R FOG     WCI  16
6HR MIN TEMP:  23; 6HR MAX TEMP:  24; 6HR PCP:  0.01;

HOUGHTON LAKE  FLURRIES  25  22  88 NW7       30.10S WCI  17
6HR MIN TEMP:  25; 6HR MAX TEMP:  26; 6HR PCP:  0.01;

MANISTEE       CLOUDY    28  23  80 NE6       30.17R WCI  22
PELLSTON       CLOUDY    23  17  78 N17       30.17R WCI   9
6HR MIN TEMP:  22; 6HR MAX TEMP:  27; 6HR PCP:  0.01;

TRAVERSE CITY  LGT SNOW  28  21  75 N16G24    30.15R WCI  16
6HR MIN TEMP:  26; 6HR MAX TEMP:  29; 6HR PCP:  0.01;

$$
MIZ007>008-015-271300-
EASTERN UPPER MICHIGAN

CITY           SKY/WX    TMP DP  RH WIND       PRES   REMARKS
KINROSS        CLOUDY    21  21 100 W14G20    30.13R WCI   8
6HR MIN TEMP:  21; 6HR MAX TEMP:  25;

S. S. MARIE    MOCLDY    23  14  68 NW12G20   30.12F WCI  12
6HR MIN TEMP:  23; 6HR MAX TEMP:  26; 6HR PCP:  0.09;

MUNISING         N/A     22  11  62 N15G26    30.24R WCI   9
6HR MIN TEMP:  22; 6HR MAX TEMP:  28; 6HR PCP:  0.01;

$$
MIZ004>006-011>014-085-271300-
CENTRAL UPPER MICHIGAN

CITY           SKY/WX    TMP DP  RH WIND       PRES   REMARKS
ESCANABA       PTCLDY    16   5  62 NW13G21   30.25R WCI   2
6HR MIN TEMP:  16; 6HR MAX TEMP:  25;

MENOMINEE      CLOUDY    16   9  73 N10       30.27R WCI   3
6HR MIN TEMP:  16; 6HR MAX TEMP:  25;

SAWYER-GWINN   CLEAR      9   1  72 NW12      30.23R WCI  -6
$$
MIZ001>003-009>011-084-271300-
WESTERN UPPER MICHIGAN

CITY           SKY/WX    TMP DP  RH WIND       PRES   REMARKS
IRON MOUNTAIN  CLEAR      6   1  80 NW8       30.26R WCI  -7
6HR MIN TEMP:   6; 6HR MAX TEMP:  20; 6HR PCP: TRACE;

HOUGHTON       FLURRIES   7  -1  70 N9        30.29R WCI  -7
6HR MIN TEMP:   7; 6HR MAX TEMP:  11; 6HR PCP: TRACE;

COPPER HARBOR    N/A     14   6  70 NE17      30.30R WCI  -3
6HR MIN TEMP:  14; 6HR MAX TEMP:  19;

IRONWOOD       CLOUDY    10   7  85 NW5       30.30S WCI   2
6HR MIN TEMP:  10; 6HR MAX TEMP:  16;

$$

ABBREVIATIONS USED IN REMARKS
   TC - TEMPERATURE IN CELSIUS
  WCI - WIND CHILL INDEX
   HX - HEAT INDEX
  VSB - VISIBILITY




USA.gov is the U.S. government's official web portal to all federal, state and local government web resources and services.